Location: Cisewo
(53.3833°N, 14.9000°E)
Time: 11:46:50
(UTC+00:00)

Cosmos 1862 - Pass Details

Date: 18 April 2021
Orbit: 537 x 556 km, 82.5° (Epoch: 14 May)

Event Time Altitude Azimuth Distance (km) Brightness Sun altitude
Rises 20:19:31 0° 355° (N) 2,706 7.8 -17.0°
Reaches altitude 10° 20:21:51 10° 5° (N) 1,809 6.6 -17.3°
Maximum altitude 20:25:27 32° 70° (ENE) 943 4.3 -17.6°
Enters shadow 20:26:12 30° 93° (E) 996 4.2 -17.7°
